MAU320 FIMP-FSIA

Flight info

Callsign MAU320
Flight time 2h 30m
Altitude 37000
Route DURDA1C DURDA UT401 ALRAN UM313 RERUS DCT IMPOX IMPOX1E
Aircraft A343/H-SDE2E3FGHIJ4J5M1RWXY/LB1D1

Departure

Time 2026-05-04 10:37
Airport Sir Seewoosagur Ramgoolam International Airport (FIMP)

Arrival

Time 2026-05-04 13:08
Airport Seychelles International Airport (FSIA)
Time Latitude Longitude Altitude Speed Heading
2026-05-04 09:57 -20.43209 57.67908 206 ft 0 kts 225°
2026-05-04 10:26 -20.43199 57.67918 207 ft 4 kts 225°
2026-05-04 10:26 -20.43180 57.67939 206 ft 4 kts 225°
2026-05-04 10:27 -20.43164 57.67955 206 ft 4 kts 227°
2026-05-04 10:27 -20.43151 57.67978 206 ft 4 kts 271°
2026-05-04 10:27 -20.43160 57.68001 206 ft 4 kts 317°
2026-05-04 10:27 -20.43171 57.68011 206 ft 0 kts 319°
2026-05-04 10:30 -20.43170 57.68010 206 ft 1 kts 318°
2026-05-04 10:31 -20.43167 57.68007 206 ft 1 kts 318°
2026-05-04 10:31 -20.43151 57.67992 206 ft 6 kts 318°
2026-05-04 10:32 -20.42921 57.67630 198 ft 12 kts 333°
2026-05-04 10:33 -20.42846 57.67586 202 ft 13 kts 324°
2026-05-04 10:33 -20.42776 57.67527 204 ft 13 kts 321°
2026-05-04 10:33 -20.42700 57.67481 203 ft 12 kts 337°
2026-05-04 10:33 -20.42630 57.67456 205 ft 10 kts 341°
2026-05-04 10:34 -20.42576 57.67423 209 ft 9 kts 313°
2026-05-04 10:34 -20.42541 57.67352 209 ft 12 kts 297°
2026-05-04 10:34 -20.42500 57.67266 210 ft 14 kts 297°
2026-05-04 10:34 -20.42454 57.67173 217 ft 14 kts 297°
2026-05-04 10:35 -20.42433 57.67081 211 ft 12 kts 269°
2026-05-04 10:35 -20.42434 57.66993 217 ft 12 kts 276°
2026-05-04 10:35 -20.42396 57.66930 219 ft 7 kts 341°
2026-05-04 10:35 -20.42363 57.66949 222 ft 5 kts 40°
2026-05-04 10:36 -20.42365 57.66987 221 ft 8 kts 110°
2026-05-04 10:36 -20.42392 57.67042 216 ft 10 kts 117°
2026-05-04 10:36 -20.42473 57.67209 216 ft 52 kts 117°
2026-05-04 10:36 -20.42727 57.67738 203 ft 106 kts 117°
2026-05-04 10:37 -20.43133 57.68583 197 ft 149 kts 117°
2026-05-04 10:37 -20.43616 57.69604 619 ft 152 kts 118°
2026-05-04 10:37 -20.44094 57.70603 1140 ft 152 kts 117°
2026-05-04 10:37 -20.44602 57.71635 1497 ft 168 kts 118°
2026-05-04 10:39 -20.39660 57.78889 5004 ft 271 kts 36°
2026-05-04 10:39 -20.38103 57.80039 5852 ft 275 kts 37°
2026-05-04 10:39 -20.36518 57.81220 6655 ft 280 kts 37°
2026-05-04 10:40 -20.34910 57.82426 7453 ft 285 kts 37°
2026-05-04 10:40 -20.33269 57.83660 8122 ft 292 kts 36°
2026-05-04 10:40 -20.31617 57.84904 8463 ft 297 kts 36°
2026-05-04 10:40 -20.29910 57.86140 8541 ft 297 kts 32°
2026-05-04 10:41 -20.28092 57.87187 8690 ft 298 kts 27°
2026-05-04 10:41 -20.26231 57.88185 9170 ft 301 kts 27°
2026-05-04 10:41 -20.24343 57.89192 9945 ft 305 kts 26°
2026-05-04 10:41 -20.22353 57.90029 10523 ft 315 kts 12°
2026-05-04 10:42 -20.20124 57.90074 10826 ft 330 kts 346°
2026-05-04 10:42 -20.18020 57.89033 11128 ft 341 kts 319°
2026-05-04 10:42 -20.16384 57.87224 11610 ft 347 kts 307°
2026-05-04 10:42 -20.14848 57.85217 12190 ft 353 kts 307°
2026-05-04 10:43 -20.13284 57.83170 12745 ft 359 kts 307°
2026-05-04 10:44 -20.01720 57.68310 16659 ft 384 kts 307°
2026-05-04 10:45 -20.00027 57.66146 17235 ft 387 kts 306°
2026-05-04 10:45 -19.98296 57.63933 17815 ft 391 kts 306°
2026-05-04 10:45 -19.96552 57.61705 18385 ft 394 kts 306°
2026-05-04 10:45 -19.94795 57.59461 18883 ft 397 kts 306°
2026-05-04 10:46 -19.93019 57.57194 19383 ft 400 kts 306°
2026-05-04 10:46 -19.91233 57.54914 19893 ft 403 kts 307°
2026-05-04 10:46 -19.89427 57.52624 20392 ft 406 kts 308°
2026-05-04 10:46 -19.87419 57.50483 20889 ft 413 kts 317°
2026-05-04 10:47 -19.85056 57.48786 21382 ft 419 kts 329°
2026-05-04 10:47 -19.82448 57.47387 21891 ft 422 kts 332°
2026-05-04 10:47 -19.79786 57.46028 22366 ft 425 kts 332°
2026-05-04 10:47 -19.77112 57.44662 22860 ft 428 kts 332°
2026-05-04 10:49 -19.58023 57.34845 25831 ft 443 kts 332°
2026-05-04 10:49 -19.55247 57.33416 26225 ft 444 kts 332°
2026-05-04 10:50 -19.52462 57.31984 26616 ft 446 kts 332°
2026-05-04 10:51 -19.32796 57.21883 29274 ft 454 kts 330°
2026-05-04 10:52 -19.29950 57.20423 29605 ft 455 kts 330°
2026-05-04 10:52 -19.27091 57.18962 29930 ft 457 kts 330°
2026-05-04 10:52 -19.24224 57.17492 30224 ft 459 kts 330°
2026-05-04 10:54 -19.03966 57.07125 32061 ft 466 kts 330°
2026-05-04 10:54 -19.01052 57.05637 32379 ft 465 kts 330°
2026-05-04 10:56 -18.80755 56.95287 34385 ft 462 kts 329°
2026-05-04 10:56 -18.77864 56.93815 34624 ft 461 kts 329°
2026-05-04 10:56 -18.74976 56.92346 34883 ft 460 kts 329°
2026-05-04 10:57 -18.72093 56.90879 35144 ft 459 kts 329°
2026-05-04 10:57 -18.69222 56.89419 35397 ft 458 kts 329°
2026-05-04 10:57 -18.66390 56.87979 35637 ft 457 kts 329°
2026-05-04 10:57 -18.63530 56.86526 35877 ft 456 kts 329°
2026-05-04 10:58 -18.60669 56.85072 36106 ft 456 kts 329°
2026-05-04 10:58 -18.57817 56.83623 36329 ft 455 kts 330°
2026-05-04 10:58 -18.54964 56.82175 36507 ft 455 kts 330°
2026-05-04 10:58 -18.52110 56.80726 36730 ft 455 kts 330°
2026-05-04 10:59 -18.49266 56.79284 36928 ft 454 kts 330°
2026-05-04 10:59 -18.43585 56.76402 37020 ft 457 kts 330°
2026-05-04 11:00 -18.37867 56.73507 37027 ft 455 kts 330°
2026-05-04 11:01 -18.18389 56.63655 37020 ft 442 kts 330°
2026-05-04 11:02 -18.15616 56.62254 37020 ft 442 kts 330°
2026-05-04 11:05 -17.69193 56.55138 37011 ft 456 kts 351°
2026-05-04 11:06 -17.62921 56.54546 37009 ft 456 kts 351°
2026-05-04 11:06 -17.56606 56.53950 37006 ft 456 kts 351°
2026-05-04 11:10 -17.12433 56.49800 37000 ft 456 kts 351°
2026-05-04 11:12 -16.87185 56.47436 36996 ft 457 kts 351°
2026-05-04 11:12 -16.80901 56.46849 37002 ft 457 kts 351°
2026-05-04 11:13 -16.74570 56.46258 37001 ft 457 kts 351°
2026-05-04 11:13 -16.68238 56.45667 36991 ft 457 kts 351°
2026-05-04 11:14 -16.61913 56.45077 36992 ft 456 kts 351°
2026-05-04 11:16 -16.36647 56.42724 36995 ft 456 kts 351°
2026-05-04 11:16 -16.30370 56.42141 36989 ft 456 kts 351°
2026-05-04 11:17 -16.24049 56.41554 36985 ft 456 kts 351°
2026-05-04 11:19 -15.98810 56.39213 36990 ft 456 kts 351°
2026-05-04 11:19 -15.92500 56.38628 36990 ft 455 kts 351°
2026-05-04 11:20 -15.86187 56.38044 36989 ft 456 kts 351°
2026-05-04 11:20 -15.79909 56.37463 36978 ft 456 kts 351°
2026-05-04 11:22 -15.54683 56.35134 36985 ft 455 kts 351°
2026-05-04 11:23 -15.48422 56.34556 36979 ft 455 kts 351°
2026-05-04 11:25 -15.26364 56.32526 36982 ft 455 kts 351°
2026-05-04 11:25 -15.20097 56.31951 36977 ft 455 kts 351°
2026-05-04 11:27 -14.91763 56.29348 36979 ft 455 kts 351°
2026-05-04 11:28 -14.85455 56.28770 36978 ft 456 kts 352°
2026-05-04 11:28 -14.79136 56.28191 36976 ft 456 kts 352°
2026-05-04 11:29 -14.72863 56.27617 36977 ft 456 kts 352°
2026-05-04 11:29 -14.66544 56.27039 36976 ft 456 kts 352°
2026-05-04 11:33 -14.22375 56.23007 36969 ft 456 kts 352°
2026-05-04 11:33 -14.16052 56.22432 36969 ft 456 kts 352°
2026-05-04 11:34 -14.09731 56.21856 36969 ft 456 kts 352°
2026-05-04 11:34 -14.03411 56.21282 36965 ft 456 kts 352°
2026-05-04 11:35 -13.97092 56.20707 36966 ft 456 kts 352°
2026-05-04 11:35 -13.90810 56.20136 36965 ft 456 kts 352°
2026-05-04 11:36 -13.84493 56.19563 36965 ft 456 kts 352°
2026-05-04 11:36 -13.78174 56.18989 36962 ft 456 kts 352°
2026-05-04 11:37 -13.71854 56.18416 36963 ft 456 kts 352°
2026-05-04 11:37 -13.65576 56.17846 36962 ft 456 kts 352°
2026-05-04 11:38 -13.59265 56.17275 36963 ft 455 kts 352°
2026-05-04 11:38 -13.52954 56.16703 36960 ft 455 kts 352°
2026-05-04 11:39 -13.46642 56.16131 36960 ft 455 kts 352°
2026-05-04 11:41 -13.24634 56.14141 36958 ft 454 kts 352°
2026-05-04 11:41 -13.18351 56.13573 36957 ft 454 kts 352°
2026-05-04 11:42 -13.12103 56.13010 36954 ft 454 kts 352°
2026-05-04 11:42 -13.05814 56.12443 36955 ft 453 kts 352°
2026-05-04 11:43 -12.99542 56.11877 36954 ft 453 kts 353°
2026-05-04 11:43 -12.93264 56.11312 36952 ft 452 kts 352°
2026-05-04 11:44 -12.86994 56.10747 36951 ft 452 kts 352°
2026-05-04 11:44 -12.80762 56.10185 36950 ft 452 kts 353°
2026-05-04 11:45 -12.74488 56.09621 36949 ft 453 kts 353°
2026-05-04 11:45 -12.68209 56.09056 36949 ft 453 kts 353°
2026-05-04 11:46 -12.61928 56.08489 36950 ft 453 kts 352°
2026-05-04 11:46 -12.55692 56.07930 36950 ft 453 kts 352°
2026-05-04 11:47 -12.49417 56.07369 36946 ft 453 kts 353°
2026-05-04 11:47 -12.43137 56.06803 36945 ft 453 kts 353°
2026-05-04 11:48 -12.36860 56.06240 36943 ft 452 kts 353°
2026-05-04 11:48 -12.30634 56.05684 36943 ft 452 kts 353°
2026-05-04 11:49 -12.24357 56.05123 36943 ft 452 kts 354°
2026-05-04 11:49 -12.18083 56.04560 36940 ft 452 kts 353°
2026-05-04 11:50 -12.11798 56.04140 36946 ft 454 kts
2026-05-04 11:50 -12.05510 56.04837 36941 ft 455 kts
2026-05-04 11:51 -11.99280 56.05811 36943 ft 456 kts
2026-05-04 11:51 -11.93018 56.06837 36938 ft 456 kts
2026-05-04 11:52 -11.86750 56.07845 36934 ft 456 kts
2026-05-04 11:52 -11.80527 56.08834 36935 ft 455 kts
2026-05-04 11:53 -11.74270 56.09825 36935 ft 455 kts
2026-05-04 11:53 -11.68012 56.10815 36933 ft 455 kts
2026-05-04 11:55 -11.43045 56.14761 36929 ft 453 kts
2026-05-04 11:56 -11.36803 56.15746 36931 ft 454 kts
2026-05-04 11:56 -11.30564 56.16730 36930 ft 454 kts
2026-05-04 11:57 -11.24365 56.17709 36926 ft 453 kts
2026-05-04 11:57 -11.18132 56.18697 36926 ft 453 kts
2026-05-04 11:58 -11.11896 56.19678 36924 ft 453 kts
2026-05-04 11:58 -11.05656 56.20664 36923 ft 453 kts
2026-05-04 11:59 -10.99424 56.21645 36924 ft 453 kts
2026-05-04 11:59 -10.93226 56.22617 36925 ft 454 kts
2026-05-04 12:00 -10.86985 56.23599 36925 ft 454 kts
2026-05-04 12:00 -10.80735 56.24583 36927 ft 454 kts
2026-05-04 12:01 -10.74490 56.25567 36925 ft 454 kts
2026-05-04 12:02 -10.52681 56.28993 36920 ft 454 kts
2026-05-04 12:03 -10.46483 56.29965 36921 ft 454 kts
2026-05-04 12:03 -10.40243 56.30944 36920 ft 454 kts
2026-05-04 12:04 -10.33999 56.31923 36919 ft 454 kts
2026-05-04 12:04 -10.27745 56.32904 36918 ft 455 kts
2026-05-04 12:05 -10.21522 56.33879 36919 ft 455 kts
2026-05-04 12:05 -10.15269 56.34859 36917 ft 455 kts
2026-05-04 12:06 -10.09002 56.35840 36915 ft 455 kts
2026-05-04 12:06 -10.02741 56.36811 36910 ft 455 kts
2026-05-04 12:07 -9.96462 56.36811 36911 ft 455 kts 355°
2026-05-04 12:07 -9.90161 56.36148 36909 ft 455 kts 353°
2026-05-04 12:08 -9.83866 56.35374 36911 ft 456 kts 353°
2026-05-04 12:08 -9.77571 56.34604 36908 ft 456 kts 353°
2026-05-04 12:09 -9.71314 56.33856 36907 ft 456 kts 353°
2026-05-04 12:09 -9.65018 56.33112 36905 ft 456 kts 353°
2026-05-04 12:10 -9.58715 56.32368 36906 ft 456 kts 353°
2026-05-04 12:10 -9.52407 56.31624 36902 ft 456 kts 353°
2026-05-04 12:11 -9.46151 56.30886 36907 ft 456 kts 353°
2026-05-04 12:11 -9.39855 56.30142 36899 ft 454 kts 353°
2026-05-04 12:12 -9.33595 56.29404 36899 ft 452 kts 353°
2026-05-04 12:12 -9.27342 56.28666 36900 ft 452 kts 353°
2026-05-04 12:14 -9.02393 56.25727 36896 ft 452 kts 353°
2026-05-04 12:15 -8.96184 56.24996 36899 ft 452 kts 353°
2026-05-04 12:15 -8.89940 56.24261 36901 ft 452 kts 353°
2026-05-04 12:16 -8.83686 56.23525 36901 ft 452 kts 353°
2026-05-04 12:16 -8.77440 56.22790 36898 ft 452 kts 353°
2026-05-04 12:17 -8.71232 56.22061 36897 ft 452 kts 353°
2026-05-04 12:17 -8.64981 56.21326 36897 ft 452 kts 353°
2026-05-04 12:18 -8.58729 56.20592 36897 ft 452 kts 353°
2026-05-04 12:18 -8.52474 56.19857 36899 ft 452 kts 353°
2026-05-04 12:19 -8.46262 56.19128 36895 ft 454 kts 354°
2026-05-04 12:19 -8.39981 56.18391 36901 ft 455 kts 354°
2026-05-04 12:20 -8.33696 56.17654 36898 ft 455 kts 354°
2026-05-04 12:20 -8.27398 56.16915 36895 ft 455 kts 354°
2026-05-04 12:21 -8.21155 56.16183 36894 ft 455 kts 354°
2026-05-04 12:21 -8.14863 56.15445 36897 ft 455 kts 354°
2026-05-04 12:22 -8.08594 56.14710 36893 ft 454 kts 354°
2026-05-04 12:22 -8.02400 56.13984 36884 ft 436 kts 354°
2026-05-04 12:23 -7.99470 56.13640 36887 ft 424 kts 354°
2026-05-04 12:23 -7.96580 56.13300 36887 ft 411 kts 354°
2026-05-04 12:23 -7.93777 56.12971 36884 ft 399 kts 354°
2026-05-04 12:23 -7.91062 56.12653 36882 ft 387 kts 354°
2026-05-04 12:24 -7.88433 56.12345 36880 ft 375 kts 354°
2026-05-04 12:24 -7.85885 56.12046 36880 ft 362 kts 355°
2026-05-04 12:24 -7.83418 56.11757 36880 ft 350 kts 354°
2026-05-04 12:24 -7.81042 56.11479 36874 ft 338 kts 355°
2026-05-04 12:25 -7.76440 56.10943 36894 ft 337 kts 355°
2026-05-04 12:25 -7.71735 56.10405 36904 ft 343 kts 355°
2026-05-04 12:26 -7.66933 56.09867 36915 ft 351 kts 355°
2026-05-04 12:26 -7.62051 56.09334 36902 ft 360 kts 355°
2026-05-04 12:27 -7.57009 56.08798 36876 ft 369 kts 355°
2026-05-04 12:27 -7.51821 56.08264 36822 ft 380 kts 356°
2026-05-04 12:28 -7.46481 56.07742 36767 ft 392 kts 356°
2026-05-04 12:28 -7.40996 56.07237 36684 ft 405 kts 356°
2026-05-04 12:29 -7.35292 56.06745 36582 ft 419 kts 357°
2026-05-04 12:29 -7.29382 56.06272 36441 ft 433 kts 357°
2026-05-04 12:30 -7.23258 56.05820 36254 ft 449 kts 358°
2026-05-04 12:30 -7.20108 56.05603 36147 ft 458 kts 358°
2026-05-04 12:30 -7.16945 56.05396 36026 ft 466 kts 358°
2026-05-04 12:31 -7.13672 56.05193 35890 ft 475 kts 358°
2026-05-04 12:31 -7.10343 56.04997 35751 ft 484 kts 358°
2026-05-04 12:31 -7.06953 56.04810 35573 ft 493 kts 358°
2026-05-04 12:31 -7.03504 56.04630 35385 ft 499 kts 358°
2026-05-04 12:32 -7.00031 56.04459 35181 ft 499 kts 358°
2026-05-04 12:32 -6.93139 56.04151 34738 ft 500 kts 359°
2026-05-04 12:32 -6.89663 56.04011 34501 ft 501 kts 359°
2026-05-04 12:33 -6.86180 56.03881 34244 ft 501 kts 359°
2026-05-04 12:33 -6.82692 56.03761 33993 ft 501 kts 359°
2026-05-04 12:33 -6.79204 56.03652 33704 ft 502 kts 359°
2026-05-04 12:33 -6.75706 56.03553 33400 ft 503 kts 359°
2026-05-04 12:34 -6.72204 56.03464 33077 ft 504 kts 359°
2026-05-04 12:34 -6.68698 56.03386 32761 ft 505 kts 359°
2026-05-04 12:34 -6.65195 56.03319 32425 ft 506 kts 360°
2026-05-04 12:41 -6.64846 56.03313 32391 ft 506 kts 360°
2026-05-04 12:41 -6.61321 56.03254 32082 ft 508 kts 359°
2026-05-04 12:42 -6.57811 56.02988 32058 ft 503 kts 351°
2026-05-04 12:42 -6.54515 56.02188 32029 ft 472 kts 342°
2026-05-04 12:42 -6.51524 56.00954 31930 ft 463 kts 334°
2026-05-04 12:42 -6.48634 55.99469 31733 ft 473 kts 333°
2026-05-04 12:43 -6.45743 55.97934 31509 ft 479 kts 333°
2026-05-04 12:43 -6.42806 55.96379 31269 ft 476 kts 333°
2026-05-04 12:43 -6.39884 55.94839 31043 ft 473 kts 333°
2026-05-04 12:43 -6.36975 55.93312 30821 ft 471 kts 333°
2026-05-04 12:44 -6.34073 55.91790 30583 ft 469 kts 333°
2026-05-04 12:44 -6.31182 55.90277 30355 ft 468 kts 333°
2026-05-04 12:44 -6.28303 55.88770 30127 ft 466 kts 333°
2026-05-04 12:44 -6.25470 55.87288 29894 ft 464 kts 333°
2026-05-04 12:45 -6.22613 55.85795 29628 ft 462 kts 333°
2026-05-04 12:45 -6.19762 55.84304 29364 ft 461 kts 333°
2026-05-04 12:45 -6.16927 55.82822 29103 ft 459 kts 333°
2026-05-04 12:45 -6.14102 55.81346 28841 ft 457 kts 333°
2026-05-04 12:46 -6.11290 55.79877 28589 ft 455 kts 333°
2026-05-04 12:46 -6.08485 55.78412 28336 ft 453 kts 333°
2026-05-04 12:46 -6.05690 55.76951 28073 ft 452 kts 333°
2026-05-04 12:46 -6.02906 55.75497 27772 ft 448 kts 333°
2026-05-04 12:47 -6.00190 55.74079 27337 ft 444 kts 333°
2026-05-04 12:47 -5.97464 55.72655 26831 ft 441 kts 333°
2026-05-04 12:47 -5.94743 55.71235 26326 ft 439 kts 333°
2026-05-04 12:47 -5.92041 55.69824 25798 ft 437 kts 333°
2026-05-04 12:48 -5.89352 55.68421 25304 ft 435 kts 333°
2026-05-04 12:48 -5.86668 55.67020 24796 ft 433 kts 333°
2026-05-04 12:48 -5.83998 55.65626 24283 ft 432 kts 333°
2026-05-04 12:48 -5.81340 55.64239 23780 ft 430 kts 333°
2026-05-04 12:49 -5.78685 55.62854 23250 ft 429 kts 333°
2026-05-04 12:49 -5.76078 55.61494 22721 ft 427 kts 333°
2026-05-04 12:49 -5.73453 55.60125 22205 ft 423 kts 333°
2026-05-04 12:49 -5.70849 55.58766 21709 ft 420 kts 333°
2026-05-04 12:50 -5.68262 55.57417 21208 ft 418 kts 333°
2026-05-04 12:50 -5.65693 55.56077 20725 ft 415 kts 333°
2026-05-04 12:50 -5.63141 55.54747 20226 ft 412 kts 333°
2026-05-04 12:50 -5.60604 55.53424 19745 ft 410 kts 333°
2026-05-04 12:51 -5.58110 55.52123 19242 ft 408 kts 333°
2026-05-04 12:51 -5.55597 55.50814 18771 ft 406 kts 333°
2026-05-04 12:51 -5.53100 55.49512 18288 ft 404 kts 333°
2026-05-04 12:51 -5.50609 55.48214 17764 ft 402 kts 333°
2026-05-04 12:52 -5.48134 55.46924 17244 ft 399 kts 333°
2026-05-04 12:52 -5.45681 55.45647 16779 ft 396 kts 333°
2026-05-04 12:52 -5.43249 55.44379 16292 ft 393 kts 332°
2026-05-04 12:52 -5.40835 55.43122 15810 ft 390 kts 332°
2026-05-04 12:53 -5.38468 55.41889 15328 ft 387 kts 332°
2026-05-04 12:53 -5.36088 55.40649 14847 ft 384 kts 332°
2026-05-04 12:53 -5.33724 55.39417 14382 ft 381 kts 332°
2026-05-04 12:53 -5.31394 55.38205 13910 ft 371 kts 332°
2026-05-04 12:54 -5.29168 55.37047 13435 ft 351 kts 331°
2026-05-04 12:54 -5.27058 55.35949 12988 ft 333 kts 331°
2026-05-04 12:54 -5.25032 55.34894 12554 ft 327 kts 331°
2026-05-04 12:54 -5.23000 55.33834 12141 ft 330 kts 331°
2026-05-04 12:55 -5.20979 55.32780 11736 ft 333 kts 331°
2026-05-04 12:55 -5.18908 55.31701 11326 ft 337 kts 332°
2026-05-04 12:55 -5.16826 55.30617 10934 ft 338 kts 332°
2026-05-04 12:55 -5.14743 55.29600 10787 ft 329 kts 338°
2026-05-04 12:56 -5.12530 55.29233 10654 ft 321 kts
2026-05-04 12:56 -5.10434 55.29872 10515 ft 314 kts 30°
2026-05-04 12:56 -5.08855 55.31332 10364 ft 308 kts 55°
2026-05-04 12:56 -5.07849 55.33212 10058 ft 304 kts 65°
2026-05-04 12:57 -5.06957 55.35113 9554 ft 299 kts 64°
2026-05-04 12:57 -5.06054 55.36939 9134 ft 293 kts 63°
2026-05-04 12:57 -5.05123 55.38739 8805 ft 291 kts 62°
2026-05-04 12:57 -5.04164 55.40540 8462 ft 293 kts 62°
2026-05-04 12:58 -5.03191 55.42337 8161 ft 293 kts 61°
2026-05-04 12:58 -5.02214 55.44126 7842 ft 292 kts 61°
2026-05-04 12:58 -5.01236 55.45908 7504 ft 292 kts 61°
2026-05-04 12:58 -5.00255 55.47689 7178 ft 291 kts 61°
2026-05-04 12:59 -4.99279 55.49460 6867 ft 289 kts 61°
2026-05-04 12:59 -4.98327 55.51185 6474 ft 284 kts 61°
2026-05-04 12:59 -4.97384 55.52895 6113 ft 277 kts 61°
2026-05-04 12:59 -4.96461 55.54566 5778 ft 271 kts 61°
2026-05-04 13:00 -4.95553 55.56210 5542 ft 265 kts 61°
2026-05-04 13:00 -4.94678 55.57792 5374 ft 254 kts 61°
2026-05-04 13:00 -4.93840 55.59308 5195 ft 244 kts 61°
2026-05-04 13:00 -4.93028 55.60777 4937 ft 239 kts 61°
2026-05-04 13:01 -4.92221 55.62239 4513 ft 241 kts 61°
2026-05-04 13:01 -4.91340 55.63655 4118 ft 239 kts 46°
2026-05-04 13:01 -4.89934 55.64403 3814 ft 234 kts
2026-05-04 13:01 -4.88314 55.64523 3627 ft 231 kts
2026-05-04 13:02 -4.86754 55.64678 3460 ft 220 kts
2026-05-04 13:02 -4.85296 55.64933 3246 ft 206 kts 11°
2026-05-04 13:02 -4.83929 55.65241 2935 ft 198 kts 13°
2026-05-04 13:02 -4.82618 55.65579 2640 ft 191 kts 14°
2026-05-04 13:03 -4.81356 55.65930 2302 ft 187 kts 15°
2026-05-04 13:03 -4.80111 55.66292 2042 ft 184 kts 16°
2026-05-04 13:03 -4.78866 55.66504 2001 ft 184 kts
2026-05-04 13:03 -4.77631 55.66222 1995 ft 183 kts 332°
2026-05-04 13:04 -4.76647 55.65441 1980 ft 179 kts 311°
2026-05-04 13:04 -4.75893 55.64445 1983 ft 180 kts 303°
2026-05-04 13:04 -4.75167 55.63416 1983 ft 181 kts 306°
2026-05-04 13:04 -4.74439 55.62382 1986 ft 182 kts 303°
2026-05-04 13:05 -4.73732 55.61345 1945 ft 175 kts 303°
2026-05-04 13:05 -4.73057 55.60366 1694 ft 167 kts 303°
2026-05-04 13:05 -4.72407 55.59437 1426 ft 159 kts 304°
2026-05-04 13:05 -4.71807 55.58553 1125 ft 153 kts 303°
2026-05-04 13:06 -4.71226 55.57679 857 ft 148 kts 302°
2026-05-04 13:06 -4.70650 55.56850 630 ft 143 kts 304°
2026-05-04 13:06 -4.70080 55.56038 490 ft 143 kts 303°
2026-05-04 13:06 -4.69513 55.55211 357 ft 145 kts 304°
2026-05-04 13:07 -4.68955 55.54370 258 ft 145 kts 304°
2026-05-04 13:07 -4.68374 55.53536 153 ft 146 kts 304°
2026-05-04 13:07 -4.67800 55.52707 27 ft 139 kts 304°
2026-05-04 13:07 -4.67359 55.52066 27 ft 87 kts 304°
2026-05-04 13:08 -4.67115 55.51712 28 ft 37 kts 304°
2026-05-04 13:08 -4.66995 55.51538 28 ft 26 kts 305°
2026-05-04 13:08 -4.66920 55.51429 30 ft 11 kts 304°
2026-05-04 13:08 -4.66894 55.51380 30 ft 5 kts 278°
2026-05-04 13:09 -4.66911 55.51360 28 ft 4 kts 217°
2026-05-04 13:09 -4.66940 55.51339 28 ft 5 kts 216°
2026-05-04 13:09 -4.66952 55.51330 28 ft 2 kts 216°
2026-05-04 13:09 -4.66969 55.51319 28 ft 4 kts 215°
2026-05-04 13:10 -4.66982 55.51310 28 ft 0 kts 215°
2026-05-04 13:10 -4.66983 55.51309 28 ft 1 kts 215°
2026-05-04 13:10 -4.66995 55.51300 28 ft 3 kts 215°
2026-05-04 13:10 -4.67012 55.51281 28 ft 4 kts 242°
2026-05-04 13:11 -4.67014 55.51251 26 ft 5 kts 279°
2026-05-04 13:11 -4.66996 55.51222 30 ft 6 kts 304°
2026-05-04 13:11 -4.66970 55.51188 27 ft 6 kts 301°
2026-05-04 13:11 -4.66981 55.51162 28 ft 5 kts 225°
2026-05-04 13:12 -4.67013 55.51141 26 ft 2 kts 214°
2026-05-04 13:12 -4.67019 55.51136 29 ft 1 kts 214°
2026-05-04 13:12 -4.67020 55.51136 29 ft 0 kts 214°